000  
SXUS52 KTAE 240519  
OSOTAE  
OSOTAE  
NORTH FLORIDA/SOUTH ALABAMA/SOUTHWEST GEORGIA WEATHER ROUNDUP  
NATIONAL WEATHER SERVICE TALLAHASSEE FLORIDA  
100 AM EDT TUE OCT 24 2017  
 
NOTE: "FAIR" INDICATES FEW OR NO CLOUDS BELOW 12,000 FEET WITH NO  
SIGNIFICANT WEATHER AND/OR OBSTRUCTIONS TO VISIBILITY.  
 
!FLZ017-115-028-034-025-240600   
..NORTH FLORIDA
 
 
 
CITY SKY/WX TMP DP RH WIND PRES REMARKS  
TALLAHASSEE CLEAR 63 55 75 NW8 29.97S  
APALACHICOLA N/A N/A N/A N/A MISG 29.97S  
PERRY CLEAR 63 61 91 CALM 29.95F  
CROSS CITY N/A 61 60 99 SW3 29.98S FOG  
JACKSONVILLE PTCLDY 73 71 93 SW7 29.90F  

 
 
!FLZ112-006-005-002-011-240600   
..FLORIDA PANHANDLE
 
 
 
CITY SKY/WX TMP DP RH WIND PRES REMARKS  
MARIANNA CLEAR 59 54 83 NW3 29.99F  
BONIFAY NOT AVBL  
PANAMA CITY NW FAIR 59 55 87 CALM 30.00S  
TYNDALL AFB CLEAR 62 54 74 N10 30.00R  
TYND DRONE APT FAIR 62 56 78 N13 29.99S  
DE FUNIAK SPR FAIR 56 53 88 NW5 30.02S  
EGLIN AFB CLEAR 58 53 83 NW3 30.01S  
DESTIN CLEAR 64 53 67 N5 30.02S  
HURLBURT CLEAR 59 54 82 CALM 30.00F  
CRESTVIEW CLEAR 55 53 93 N3 30.03S  
PENSACOLA CLEAR 59 54 83 NW5 30.02S  

 
 
!ALZ063-066-240600   
..SOUTH ALABAMA
 
 
 
CITY SKY/WX TMP DP RH WIND PRES REMARKS  
DOTHAN CLEAR 56 54 93 NW3 30.03F  
OZARK CAIRNS CLEAR 56 52 85 NW3 30.01S  
FT RUCKER HELI CLEAR 54 52 95 CALM 30.01S  
RUCKER HELI 3 FAIR 56 53 89 N3 30.00F  
RUCKER HELI 2 FAIR 56 53 92 CALM 30.00S  
FLORALA APT CLEAR 54 51 90 NW3 30.04S  
ANDALUSIA CLEAR 57 52 83 CALM 30.01S  
TROY CLEAR 51 51 100 CALM 30.01S  
EUFALA FAIR 53 52 96 CALM 29.99F  
MOBILE CLEAR 52 50 93 CALM 30.04F  

 
 
!GAZ120>161-240600   
..SOUTHWEST AND SOUTH CENTRAL GEORGIA
 
 
 
CITY SKY/WX TMP DP RH WIND PRES REMARKS  
THOMASVILLE FAIR 63 55 77 NW6 29.97S  
BAINBRIDGE CLEAR 61 57 88 NW6 29.99S  
MOODY AFB PTCLDY 62 55 80 NW7 29.94R  
VALDOSTA CLEAR 59 57 93 CALM 29.95S  
MOULTRIE CLEAR 61 54 77 NW6 29.97S  
BLAKELY CLEAR 59 54 82 CALM 30.00S  
ALBANY CLEAR 59 54 83 NW7 30.00S  
TIFTON FAIR 60 56 87 NW9 29.95S  
FITZGERALD FAIR 62 56 81 NW8 29.97S  
CORDELE FAIR 62 55 77 NW5 29.99S  
AMERICUS FAIR 55 55 100 NW5 30.00F  
HOMERVILLE FAIR 61 59 94 NW5 29.94F  

 
 
!GMZ750-755-770-775-240600   
..COASTAL AND BUOY OBS
 
 
 
STATION/POSITION TIME TEMP WIND PRES VSBY WAVE  
AIR SEA DIR/SP/G HT/PER  
(UTC) (F) (DEG/KT/KT) (MB) (MI) (FT/S)  
KEATON BEACH 0500 68 340/ 4/ 7 1013.6S  
CEDAR KEY 0500 74 290/ 7/ 10 1013.9F  
C TOWER 0500 68 360/ 17/ 18 1015.0F  
APALACHICOLA BUO 0450 75 80 300/ 10/ 14 1014.1F 4/ 6  
PANAMA CITY BUOY 0450 75 81 340/ 10/ 14 1014.9S 4/ 6  
MOBILE BUOY 0500 72 81 10/ 14/ 17 1016.8  
ORANGE BCH AL BU 0450 78 1016.4F 2/ 7  

 
 
 
CLICK HERE TO GO TO PREVIOUS BULLETINS.

The Nexlab FL Page
The Nexlab GA Page
The Nexlab AL Page Main Text Page